Regional Weather Roundup
Issued by NWS

Home | Current Version | Previous Version | Graphics & Text | Print | Product List | Glossary On
Versions: 1 2 3 4 5 6 7 8 9 10 11 12 13 14 15 16 17 18 19 20 21 22 23 24 25 26 27 28 29 30 31 32 33 34 35 36 37 38 39 40 41 42 43 44 45 46 47 48 49 50
229
ASUS43 KMKX 051021
RWRWI

WISCONSIN REGIONAL WEATHER ROUNDUP
NATIONAL WEATHER SERVICE MILWAUKEE/SULLIVAN WI
400 AM CST MON DEC 05 2016

NOTE: "FAIR" INDICATES FEW OR NO CLOUDS BELOW 12,000 FEET WITH NO
SIGNIFICANT WEATHER AND/OR OBSTRUCTIONS TO VISIBILITY.

WIZ001-002-006>008-014>016-023>028-051100-
NORTHWEST WISCONSIN

CITY           SKY/WX    TMP DP  RH WIND       PRES   REMARKS
SUPERIOR ARPT  CLOUDY    33  29  85 W6        29.76S WCI  28
ASHLAND        CLOUDY    34  29  82 W10       29.75S WCI  26
HAYWARD        CLOUDY    33  28  81 SW6       29.76S WCI  28
SIREN          CLEAR     31  29  92 W6        29.78S WCI  25
CUMBERLAND     CLEAR     27  25  93 SW6       29.79R FOG     WCI  20
RICE LAKE      PTCLDY    30  28  92 CALM      29.81S
CHETEK         CLEAR     28  28  98 CALM      29.80S
LADYSMITH      CLOUDY    32  30  92 SW6       29.81R WCI  27
EAU CLAIRE     CLEAR     29  29 100 SW3       29.82S
MENOMONIE      CLEAR     30  29  98 CALM      29.83S
NEW RICHMOND   CLEAR     27  27  99 S3        29.80F FOG
OSCEOLA        CLEAR     26  26 100 S5        29.82F WCI  21
$$

WIZ003>005-009-010-017-018-051100-
NORTH CENTRAL WISCONSIN

CITY           SKY/WX    TMP DP  RH WIND       PRES   REMARKS
MANITOWISH WTR CLOUDY    31  31 100 W10       29.72R WCI  22
ARBOR VITAE    CLOUDY    33  31  92 SW7       29.73R WCI  27
WOODRUFF       CLOUDY    33  31  92 SW7       29.73R WCI  27
RHINELANDER    CLOUDY    32  29  88 W9        29.75R WCI  24
EAGLE RIVER    CLOUDY    32  31  96 W10       29.72S WCI  23
LAND O LAKES   CLOUDY    32  30  92 W5        29.72S WCI  27
PHILLIPS       MOCLDY    31  29  94 SW7       29.75S WCI  24
TOMAHAWK       CLOUDY    31  28  86 SW3       29.78R
MEDFORD        CLOUDY    31  29  89 SW8       29.79S WCI  24
MERRILL        CLOUDY    33  29  88 W9        29.80R WCI  25
$$

WIZ029-030-035-036-043>047-051100-
CENTRAL WISCONSIN

CITY           SKY/WX    TMP DP  RH WIND       PRES   REMARKS
WAUSAU         CLOUDY    33  28  81 W7        29.80R WCI  27
MOSINEE        CLOUDY    32  32 100 W9        29.82S WCI  24
MARSHFIELD     CLOUDY    32  30  92 SW10      29.82R WCI  24
STEVENS POINT  CLOUDY    32  32  99 SW7       29.84R WCI  26
WAUPACA        CLOUDY    36  32  87 SW9       29.86R WCI  29
WAUTOMA        CLOUDY    33  32  96 SW9       29.88R WCI  25
WISC RAPIDS    CLOUDY    34  33  96 SW8       29.87R WCI  27
CAMP DOUGLAS   CLOUDY    34  31  88 SW7       29.87R WCI  28
$$

WIZ011>013-019>022-031-037>040-048>050-051100-
NORTHEAST WISCONSIN

CITY           SKY/WX    TMP DP  RH WIND       PRES   REMARKS
ANTIGO         CLOUDY    31  27  86 W10G17    29.78S WCI  22
SHAWANO        CLOUDY    35  32  88 SW5       29.83R WCI  31
OCONTO         CLOUDY    33  31  93 SW6       29.82S WCI  27
STURGEON BAY   CLOUDY    34  31  88 SW13      29.82S WCI  25
GREEN BAY      CLOUDY    36  33  89 SW9       29.85R WCI  29
MANITOWOC      CLOUDY    34  32  92 W8        29.86S WCI  27
APPLETON       CLOUDY    32  32 100 SW12      29.84R WCI  23
CLINTONVILLE   CLOUDY    34  32  93 SW8       29.84R WCI  27
OSHKOSH        CLOUDY    34  30  85 SW8       29.86R WCI  27
$$

WIZ032>034-041-042-053>061-051100-
SOUTHWEST WISCONSIN

CITY           SKY/WX    TMP DP  RH WIND       PRES   REMARKS
LA CROSSE      MOCLDY    36  33  89 S7        29.88S WCI  30
SPARTA         CLOUDY    33  32  95 CALM      29.88S
VIROQUA        CLOUDY    32  32 100 SW7       29.88R WCI  26
BOSCOBEL       CLOUDY    35  33  92 SW5       29.93R FOG     WCI  31
PRAIRIE DU CHI CLOUDY    34  32  92 SW5       29.92S FOG     WCI  30
PLATTEVILLE    CLOUDY    33  33 100 SW10      29.94R WCI  25
$$

WIZ056-057-062-063-064-067-068-051100-
SOUTH CENTRAL WISCONSIN

CITY           SKY/WX    TMP DP  RH WIND       PRES   REMARKS
REEDSBURG      CLOUDY    33  32  98 SW7       29.90R WCI  26
BARABOO/DELLS  CLOUDY    33  31  94 SW9       29.90R WCI  25
LONE ROCK      CLOUDY    34  32  92 SW3       29.93R
MINERAL POINT  CLOUDY    34  34 100 SW9       29.92R FOG     WCI  26
MADISON        CLOUDY    33  31  92 VRB6      29.92S WCI  28
MIDDLETON      CLOUDY    34  34 100 W8        29.92R WCI  27
WATERTOWN      CLOUDY    32  32 100 SW6       29.92R WCI  27
MONROE         CLOUDY    32  32 100 SW9       29.93S FOG     WCI  24
JANESVILLE     CLOUDY    34  32  93 SW7       29.95R FOG     WCI  28
$$

WIZ051-052-058>065-066-070>072-051100-
SOUTHEAST WISCONSIN

CITY           SKY/WX    TMP DP  RH WIND       PRES   REMARKS
MILWAUKEE      DRIZZLE   35  30  82 W10       29.94R WCI  27
WAUKESHA       CLOUDY    32  30  93 W9        29.94R WCI  24
MILWAUKEE/TIMM CLOUDY    32  30  93 W9        29.94R WCI  24
RACINE         CLOUDY    33  30  88 SW8       29.97R WCI  26
BURLINGTON     CLOUDY    32  31  95 SW8       29.95R WCI  25
KENOSHA        CLOUDY    33  30  88 W15       29.96R WCI  23
FOND DU LAC    MOCLDY    34  29  82 SW12      29.89R WCI  25
SHEBOYGAN      CLOUDY    33  30  88 SW10      29.88R WCI  25
WEST BEND      CLOUDY    32  32 100 W9        29.91R WCI  24
JUNEAU         CLOUDY    32  30  92 SW12      29.92S WCI  23
$$

LSZ147-162-051100-
LAKE SUPERIOR

STATION/POSITION TIME  TEMP    WIND        PRES    WAVE
                       AIR SEA DIR/SP/G            HT/PER
                 (UTC) (F)     (DEG/KT/KT) (MB)    (FT/S)
DEVILS ISLAND    1000   36     260/ 22/ 26 1006.8R
PORT WING        0930   35     230/  8/ 14 1007.5S
SAXON HARBOR     0940   36     200/  5/  7 1007.5R
$$

LMZ867-665-643>646-051100-
LAKE MICHIGAN

STATION/POSITION TIME  TEMP    WIND        PRES    WAVE
                       AIR SEA DIR/SP/G            HT/PER
                 (UTC) (F)     (DEG/KT/KT) (MB)    (FT/S)
CHAMBERS ISLAND  0940   35     210/  9/ 18 1008.5R
NORTHPORT PIER   0940   36     240/  5/ 15 1008.8R
SISTER BAY       0923   37     280/ 23/ 27   N/A
ALGOMA LAKESHORE 0921          250/  9/ 16   N/A
KEWAUNEE LAKESHO 0954   35     250/ 10/ 14 1010.1R
SHEBOYGAN LAKESH 1000   35     230/ 11/ 13 1012.6R
PORT WASHINGTON  0940   35     250/  8/ 11 1013.9R
MILWAUKEE LAKESH 0950   35     260/  7/  9   N/A
KENOSHA   LAKESH 1000   34     240/ 10/ 15 1014.9
$$

TC  - TEMPERATURE IN CELSIUS
VSB - VISIBILITY IN STATUTE MILES
WCI - WIND CHILL INDEX
HX  - HEAT INDEX





USA.gov is the U.S. government's official web portal to all federal, state and local government web resources and services.